Back to catalog

CZ-6A DEB

AlivePO
NORAD 61102·DEBRIS·🇨🇳 China

Launched Aug 6, 2024 from Taiyuan Satellite Launch Center

Loading…

Next Passes (next 24 hours)

TLE

FreshSource: Space-Track

Epoch: Sep 14, 2026, 08:16 UTC

1 61102U 24140NU  26257.34507647  .00006554  00000-0  57994-3 0  9996
2 61102  88.7311 229.1149 0123469 159.7822 200.8361 14.90382279110521

Track CZ-6A DEB in real time with AllMySat

Download on the App Store